This is the latest recevied weather packets stored in our database for station/object KC8P. If no packets are shown the sender has not sent any weather packets the latest 10 day(s).
| Time | Temp. | Humidity | Pressure | Rain* | Wind** | Luminosity | Snow |
|---|---|---|---|---|---|---|---|
| 1778161082 | 10.56° C | 50% | 1012.4 hPa | 0 mm | - | 440 W/m² | - |
| 1778160940 | 10.56° C | 52% | 1012.4 hPa | 0 mm | - | 434 W/m² | - |
| 1778160932 | 10.56° C | 50% | 1012.8 hPa | 0 mm | - | 434 W/m² | - |
| 1778160787 | 10.56° C | 53% | 1012.8 hPa | 0 mm | - | 436 W/m² | - |
| 1778160779 | 10.56° C | 52% | 1012.4 hPa | 0 mm | - | 436 W/m² | - |
| 1778160770 | 10.56° C | 52% | 1012.4 hPa | 0 mm | - | 437 W/m² | - |
| 1778160625 | 10° C | 52% | 1012.4 hPa | 0 mm | - | 436 W/m² | - |
| 1778160484 | 10° C | 54% | 1012.4 hPa | 0 mm | - | 430 W/m² | - |
| 1778160471 | 9.44° C | 53% | 1012.4 hPa | 0 mm | - | 421 W/m² | - |
| 1778160462 | 9.44° C | 53% | 1012.4 hPa | 0 mm | - | 416 W/m² | - |
| 1778160452 | 9.44° C | 52% | 1012.4 hPa | 0 mm | - | 419 W/m² | - |
| 1778160308 | 10° C | 52% | 1012.4 hPa | 0 mm | - | 420 W/m² | - |
| 1778160161 | 10° C | 52% | 1012.4 hPa | 0 mm | - | 419 W/m² | - |
| 1778160152 | 10° C | 52% | 1012.4 hPa | 0 mm | - | 413 W/m² | - |
| 1778160144 | 10.56° C | 51% | 1012.4 hPa | 0 mm | - | 406 W/m² | - |
| 1778159993 | 10.56° C | 52% | 1012.4 hPa | 0 mm | - | 401 W/m² | - |
| 1778159985 | 10° C | 52% | 1012.4 hPa | 0 mm | - | 393 W/m² | - |
| 1778159845 | 10° C | 52% | 1012.4 hPa | 0 mm | - | 388 W/m² | - |
| 1778159837 | 9.44° C | 52% | 1012.1 hPa | 0 mm | - | 383 W/m² | - |
| 1778159828 | 9.44° C | 51% | 1012.4 hPa | 0 mm | - | 386 W/m² | - |
| 1778159686 | 9.44° C | 54% | 1012.1 hPa | 0 mm | - | 385 W/m² | - |
| 1778159678 | 9.44° C | 53% | 1012.4 hPa | 0 mm | - | 380 W/m² | - |
| 1778159538 | 9.44° C | 53% | 1012.4 hPa | 0 mm | - | 375 W/m² | - |
| 1778159529 | 9.44° C | 53% | 1012.4 hPa | 0 mm | - | 368 W/m² | - |
| 1778159387 | 9.44° C | 54% | 1012.4 hPa | 0 mm | - | 360 W/m² | - |
* Rain latest hour (hover to see other rain measurements)
** Current wind speed in m/s (hover to see current wind gust speed)